Location: Newark
(41.8083°N, 72.2500°W)
Time: 12:33:28
(UTC+00:00)

deb Explorer IX - Visible Passes

Search period start: 08 December 2021 00:00
Search period end: 18 December 2021 00:00
Orbit: 545 x 1085 km, 38.8° (Epoch: 07 December)

Date Brightness Start Highest point End Pass type
(mag) Time Alt. Az. Time Alt. Az. Time Alt. Az.
09 Dec ? 11:20:31 10° SSW 11:24:31 18° SSE 11:28:09 10° ESE visible
10 Dec ? 10:55:14 10° SSW 10:59:26 19° SSE 11:03:15 10° ESE visible
11 Dec ? 10:29:56 10° SSW 10:34:19 19° SSE 10:38:19 10° ESE visible
12 Dec ? 10:04:38 10° SSW 10:09:11 20° SSE 10:13:21 10° ESE visible
13 Dec ? 09:39:19 10° SSW 09:44:01 20° SSE 09:48:23 10° ESE visible
13 Dec ? 11:24:23 10° SW 11:30:28 46° SSE 11:35:44 10° E visible
14 Dec ? 09:14:57 13° S 09:18:51 21° SSE 09:23:21 10° ESE visible
14 Dec ? 10:59:04 10° SW 11:05:19 47° SSE 11:10:45 10° E visible
15 Dec ? 08:52:06 20° SSE 08:53:38 21° SSE 08:58:17 10° E visible
15 Dec ? 10:33:44 10° SW 10:40:07 47° SSE 10:45:44 10° E visible
16 Dec ? 08:28:58 21° SE 08:28:58 21° SE 08:33:11 10° E visible
16 Dec ? 10:10:11 18° SW 10:14:55 48° SSE 10:20:41 10° E visible
17 Dec ? 08:05:40 18° ESE 08:05:40 18° ESE 08:08:03 10° E visible
17 Dec ? 09:46:52 31° SW 09:49:40 48° SSE 09:55:37 10° E visible
17 Dec ? 11:29:57 10° W 11:36:31 67° S 11:42:11 10° E visible
